Dewpoint
26 24 28 26 26 27 24 25 23 23 25 25 24 22 23 24 28 39 44 43 44 44 45 47 50 50 49 48 46 43 42 41 41 41 39 40 39 37 38 37 35 35 34 33
26 28 26 26 26 26 26 26 25 25 24 26 26 28 28 29 31 31 32 33 37 42 42 43 46 47 48 46 45 43 41 42 41 41 39 37 36 36 35 34 33 35 37 35
23 26 24 23 25 25 25 26 26 22 23 24 24 26 29 30 30 30 31 33 36 36 43 43 45 47 45 42 41 40 42 42 41 39 37 35 34 33 33 34 37 38 36 33
25 23 17 25 28 26 26 25 24 24 24 29 30 31 32 32 32 32 33 37 39 40 42 44 43 41 41 40 40 41 41 41 39 35 34 33 33 34 36 39 38 33 32 30
24 24 25 25 23 24 22 22 27 27 30 32 35 35 35 36 36 35 35 35 33 34 37 39 40 40 37 33 33 33 33 33 34 35 35 36 36 38 39 35 32 31 30 29
25 21 19 27 27 26 27 23 28 30 30 32 31 28 33 36 33 33 33 33 33 33 32 32 32 32 32 32 32 32 33 34 35 37 38 39 38 36 33 32 32 29 28 29
22 21 25 27 28 26 18 22 32 32 32 32 30 32 34 33 33 33 33 33 33 32 31 31 32 32 32 32 33 36 39 40 40 40 39 38 34 32 30 29 29 28 28 28
25 19 21 32 28 21 27 34 34 34 35 38 38 33 32 33 33 32 31 32 32 32 32 33 32 33 34 35 36 37 38 38 37 35 32 31 31 31 30 28 27 27 24 26
30 28 32 35 30 34 35 35 37 38 40 38 32 31 32 33 33 32 31 31 32 32 32 33 33 33 33 34 35 35 33 32 32 32 31 31 31 30 28 27 26 26 27 26
32 36 38 38 39 39 39 39 38 40 38 32 32 33 33 33 33 33 33 31 31 29 29 30 32 32 33 32 32 31 31 30 30 30 30 29 29 29 28 26 25 27 27 26
35 38 38 37 37 35 35 35 35 35 34 34 33 33 33 33 32 32 32 31 30 30 29 30 31 31 31 31 31 29 29 29 29 29 28 28 28 29 28 28 28 28 28 27
32 38 36 37 37 36 34 34 34 33 33 34 33 33 32 31 31 30 30 31 30 30 30 29 29 29 30 30 30 28 28 28 27 27 27 27 27 27 30 30 30 31 31 29
35 39 38 37 35 35 34 33 33 32 32 31 32 32 32 31 32 32 31 30 29 29 29 30 29 28 30 31 30 30 28 29 29 28 28 28 28 28 28 29 31 31 31 32
37 36 35 35 34 34 34 33 33 32 33 33 32 32 31 30 30 29 29 29 30 30 29 28 27 25 27 28 27 28 28 28 28 27 27 26 25 26 27 26 26 27 29 31
36 37 35 34 33 33 33 32 32 32 31 31 30 30 30 29 29 29 29 30 29 28 25 22 21 21 25 25 24 24 23 21 21 21 21 21 22 21 22 22 22 23 24 24
34 33 33 33 32 31 31 31 29 29 29 30 30 31 30 28 26 27 28 28 26 23 20 17 22 24 24 19 16 17 18 19 19 21 21 21 19 18 18 20 21 22 22 23
33 32 32 32 31 31 31 29 28 28 29 29 29 28 24 25 26 26 27 24 21 20 21 22 19 16 17 15 17 19 19 19 17 18 18 17 18 17 18 17 15 17 21 23
37 35 35 33 32 31 30 29 28 28 28 28 24 22 22 23 24 22 21 21 18 18 20 17 15 12 13 14 15 17 15 16 14 13 14 13 13 15 14 15 14 14 14 16
35 34 34 33 32 30 28 28 28 28 26 24 24 23 23 23 23 21 19 14 12 15 18 14 15 11 10 14 13 13 12 11 8 9 9 8 9 9 11 9 10 11 12 13
33 32 31 30 30 29 28 28 27 25 25 24 21 20 19 18 17 17 17 15 14 17 17 13 10 9 8 10 9 10 9 6 6 4 5 5 3 4 6 5 6 8 8 10
31 30 29 27 26 27 27 25 23 21 21 20 19 17 18 18 15 13 14 15 14 16 15 12 11 9 7 7 8 5 2 -2 -2 1 0 -1 -1 1 0 0 2 3 5 6
30 29 28 26 24 24 24 22 20 20 19 16 14 15 15 16 14 15 12 15 15 9 15 14 11 1 5 2 7 -4 2 1 0 -3 -3 -3 -4 -2 -4 -3 -2 -1 1 3
29 28 26 26 24 23 24 20 19 17 16 15 15 16 18 18 16 13 13 16 16 9 14 8 2 -2 -4 -9 -10 -12 -11 -12 -10 -7 -12 -13 -9 -6 -6 -6 -4 -3 -2 -0
27 27 26 23 21 20 19 19 18 17 17 18 14 13 18 13 10 17 15 7 2 -2 -2 -1 -3 -3 -8 -13 -15 -15 -15 -18 -18 -14 -13 -14 -17 -13 -10 -9 -7 -7 -5 -3
28 24 23 22 20 19 19 20 19 18 18 15 16 18 18 16 9 11 4 4 5 2 -3 -6 -5 -7 -14 -17 -16 -17 -17 -19 -21 -17 -21 -22 -17 -16 -15 -13 -11 -9 -8 -6
24 22 20 20 20 20 19 19 19 18 15 10 11 4 10 11 10 8 1 -2 1 -1 -4 -12 -15 -15 -16 -12 -13 -15 -17 -14 -19 -17 -22 -22 -20 -18 -18 -15 -13 -11 -10 -8
22 21 19 19 18 17 16 16 16 15 12 7 6 5 9 6 3 1 -9 -12 -13 -13 -13 -15 -16 -13 -14 -18 -14 -11 -14 -18 -20 -19 -25 -26 -23 -24 -21 -17 -15 -13 -12 -11
Lifted_Index
0 0 0 0 0 0 0 0 1 1 1 2 2 1 2 2 2 2 1 0 -1 -1 -1 -1 -1 -1 -0 -0 -0 -0 -0 -0 0 1 2 4 5 7 8 8 9 10 10 10
0 1 1 1 1 1 1 1 1 1 1 1 1 1 2 2 3 2 2 1 1 1 1 1 1 1 1 1 0 0 0 0 1 1 3 4 6 7 8 8 9 10 10 10
1 1 1 2 2 2 1 1 1 1 1 1 1 1 2 3 3 3 3 3 3 3 3 3 3 2 2 2 1 1 1 1 1 2 4 5 7 8 8 8 9 9 10 10
1 1 2 2 3 3 2 2 2 1 2 2 2 2 3 3 3 4 4 4 4 4 4 4 4 3 3 2 1 1 1 1 2 4 5 6 7 8 8 8 9 10 11 11
2 2 2 2 3 3 3 3 3 2 2 2 2 3 3 4 4 4 4 4 4 5 5 5 5 4 3 2 2 1 1 2 4 6 7 7 8 8 9 9 10 11 11 12
1 2 2 2 2 2 3 3 3 3 3 3 3 3 4 4 4 4 4 4 5 5 5 5 5 4 3 3 2 2 3 4 6 7 8 8 8 9 10 10 11 11 12 11
1 1 1 1 2 2 3 3 3 3 3 3 3 4 4 4 4 4 4 4 5 5 5 5 5 4 4 4 4 4 5 6 7 8 8 9 9 10 11 11 12 12 11 11
1 1 1 1 2 2 2 2 2 3 3 3 4 4 4 4 4 4 4 4 5 5 5 5 6 6 5 6 6 7 7 8 8 9 10 10 11 12 12 12 12 12 11 11
1 1 2 2 2 2 2 2 2 3 3 3 4 4 4 4 4 4 4 5 5 6 6 7 7 8 8 8 9 9 9 10 11 12 12 12 12 12 12 12 12 11 11 10
2 2 2 3 3 2 2 2 3 3 3 4 4 4 5 4 5 5 5 6 6 7 7 8 9 10 10 11 11 12 12 13 13 14 14 13 13 13 13 12 11 11 10 9
2 2 2 3 2 2 3 3 3 3 3 4 4 4 5 5 5 5 6 7 8 8 8 9 10 11 12 13 14 14 14 14 14 14 13 13 13 12 12 11 10 9 8 8
2 2 2 2 2 3 3 3 4 4 4 4 4 4 5 5 6 6 7 8 9 9 10 11 12 13 14 14 14 14 14 14 14 13 13 12 12 12 11 10 9 8 7 6
1 1 1 2 2 3 4 4 4 4 4 4 5 5 5 6 7 8 9 9 10 11 13 14 14 15 15 15 15 14 14 14 13 13 13 13 12 12 11 10 9 8 6 6
1 1 1 1 2 3 3 3 3 4 4 5 5 6 7 7 8 9 11 12 13 14 15 15 15 15 15 15 15 14 14 14 14 14 14 14 14 13 13 12 10 9 8 7
0 0 1 1 2 2 3 3 3 4 4 6 7 8 9 10 10 12 13 14 15 15 15 15 15 15 15 15 15 15 15 15 15 15 15 15 15 14 13 12 11 10 10 10
-0 -0 0 1 1 2 2 3 3 4 5 7 9 10 11 12 13 14 15 16 15 15 15 15 15 16 16 16 16 16 16 16 16 16 16 15 14 13 13 12 12 11 11 11
0 1 1 1 1 2 3 4 5 6 8 9 11 13 14 14 15 15 15 15 15 15 15 15 16 17 17 17 17 16 16 16 16 16 15 14 14 13 13 13 13 12 11 11
2 2 2 3 3 3 4 6 7 9 11 12 14 14 15 15 15 15 15 15 15 15 15 16 17 17 18 18 17 17 17 17 16 15 15 14 14 14 14 14 13 12 11 11
3 3 4 4 5 6 7 8 10 12 13 14 15 15 15 15 14 14 15 15 15 15 16 17 18 18 18 18 18 17 17 16 15 14 14 14 14 14 14 14 13 12 12 11
4 5 5 6 7 8 9 11 12 13 14 15 15 14 14 14 14 14 14 14 15 16 17 17 18 18 18 18 17 17 16 15 14 14 14 14 14 14 14 14 13 12 12 11
6 7 7 8 9 11 12 13 13 14 14 15 14 14 14 14 14 14 14 14 15 17 17 18 18 18 17 17 16 15 15 15 14 14 14 14 14 14 14 14 13 13 12 12
8 8 9 10 11 12 13 14 14 14 14 14 14 14 14 14 14 14 14 15 16 17 18 18 18 17 17 16 15 15 15 15 15 15 15 14 14 14 14 14 13 13 13 13
9 9 10 11 12 12 13 14 14 14 14 14 14 14 14 14 14 14 15 16 17 18 18 17 17 17 16 16 15 15 15 15 15 15 15 14 14 14 14 14 14 14 14 14
10 10 11 12 12 13 13 14 14 14 14 14 14 14 14 14 14 15 16 17 18 18 17 17 17 16 16 16 15 16 16 16 16 15 15 14 14 14 15 15 15 15 15 15
10 11 11 12 12 13 13 14 14 14 14 14 14 14 15 15 16 17 17 17 17 17 17 16 16 16 16 16 16 16 16 16 16 16 15 15 15 15 15 15 15 15 15 15
10 11 11 12 12 13 13 13 13 13 13 13 14 15 16 16 17 17 17 17 17 16 16 16 16 16 16 17 17 17 17 17 17 16 16 15 15 15 15 16 16 15 15 15
10 11 11 12 13 13 13 13 12 12 13 13 14 15 16 16 17 16 16 16 16 16 16 16 17 17 17 17 17 17 17 18 17 17 16 16 16 16 16 16 16 15 15 15